Flag for U.S.A. Weather past 2 weeks in Burbank, California, U.S.A.

Now
79 °F

Sunny.


Feels Like: 80 °F
Forecast: 72 / 99 °F
Wind: No wind

Location: Burbank-Glendale-Pasadena Airport

Current Time: Aug 28, 2015 at 8:15:42 AM

Latest Report: Aug 28, 2015 at 7:53 AM


Visibility: 10 mi

Pressure: 29.87 "Hg

Humidity: 50%

Dew point: 59 °F

Location of BurbankLocation

Historic Weather in Burbank — Graph

°F

Burbank temperature yesterday

Maximum temperature yesterday: 98 °F (at 2:53 PM)
Minimum temperature yesterday: 74 °F (at 2:53 AM)
Average temperature yesterday: 85 °F

Past Weeks' High & Low Weather Summary

 TemperatureHumidityPressure
High102 °F (Aug 15, 1:53 PM)88% (Aug 19, 4:56 AM)29.95 "Hg (Aug 19, 4:56 AM)
Low66 °F (Aug 20, 2:53 AM)7% (Aug 13, 5:53 PM)29.75 "Hg (Aug 16, 6:53 PM)
Average79 °F53%29.86 "Hg
* Reported Aug 13 5:53 AM — Aug 28 5:53 AM, Burbank, Weather by CustomWeather, © 2015

Note: Actual official high and low records may vary slightly from our data, if they occured in-between our weather recording intervals... More about our weather records

Advertising

Burbank weather history for previous 24 hours

 ConditionsComfort  
Time TempWeatherWind HumidityBarometerVisibility
5:53 AM
Fri, Aug 28
75 °FClear.No wind48%29.85 "Hg10 mi
4:53 AM76 °FPassing clouds.No wind48%29.85 "Hg10 mi
3:53 AM76 °FClear.5 mph47%29.85 "Hg10 mi
2:53 AM77 °FClear.No wind52%29.86 "Hg10 mi
1:53 AM78 °FClear.3 mph54%29.87 "Hg10 mi
12:53 AM78 °FClear.3 mph54%29.87 "Hg10 mi
11:53 PM
Thu, Aug 27
79 °FClear.5 mph54%29.88 "Hg10 mi
10:53 PM79 °FClear.5 mph54%29.88 "Hg10 mi
9:53 PM81 °FClear.7 mph53%29.88 "Hg10 mi
8:53 PM83 °FClear.9 mph50%29.87 "Hg10 mi
7:53 PM87 °FSunny.7 mph37%29.83 "Hg10 mi
6:53 PM90 °FSunny.6 mph32%29.83 "Hg10 mi
5:53 PM93 °FSunny.7 mph28%29.83 "Hg10 mi
4:53 PM96 °FSunny.10 mph23%29.83 "Hg10 mi
3:53 PM97 °FSunny.10 mph21%29.85 "Hg10 mi
2:53 PM98 °FSunny.12 mph20%29.87 "Hg10 mi
1:53 PM96 °FSunny.10 mph26%29.90 "Hg10 mi
12:53 PM96 °FSunny.10 mph29%29.91 "Hg10 mi
11:53 AM93 °FSunny.7 mph31%29.93 "Hg10 mi
10:53 AM91 °FSunny.5 mph32%29.95 "Hg10 mi
9:53 AM86 °FSunny.No wind39%29.95 "Hg10 mi
8:53 AM81 °FSunny.No wind47%29.95 "Hg10 mi
Weather by CustomWeather, © 2015

See weather overviewHow to use our weather pages